ETD301 OMDB-VOCI

Flight info

Callsign ETD301
Flight time 3h 34m
Altitude 34000
Route OMDB/30L N0489F390 ANVI7F ANVIX L223 TARDI N629 GIDAN P570 EMURU M300 VASTU P895 AKLON AKLO1D VOCI/27
Aircraft A350/H-SDFGHIRWY/C

Departure

Time 2026-04-23 10:59
Airport Dubai International Airport (OMDB)

Arrival

Time 2026-04-23 14:34
Airport Cochin International Airport (VOCI)
Time Latitude Longitude Altitude Speed Heading
2026-04-23 10:27 25.24388 55.37293 43 ft 0 kts 210°
2026-04-23 10:45 25.24397 55.37298 43 ft 2 kts 210°
2026-04-23 10:45 25.24414 55.37309 38 ft 3 kts 210°
2026-04-23 10:46 25.24430 55.37319 38 ft 3 kts 210°
2026-04-23 10:46 25.24450 55.37327 37 ft 3 kts 176°
2026-04-23 10:46 25.24469 55.37322 37 ft 3 kts 152°
2026-04-23 10:46 25.24486 55.37312 36 ft 3 kts 152°
2026-04-23 10:47 25.24503 55.37298 37 ft 3 kts 117°
2026-04-23 10:47 25.24508 55.37283 36 ft 0 kts 116°
2026-04-23 10:53 25.24495 55.37310 36 ft 11 kts 118°
2026-04-23 10:53 25.24434 55.37423 41 ft 23 kts 121°
2026-04-23 10:53 25.24339 55.37591 43 ft 10 kts 123°
2026-04-23 10:53 25.24333 55.37600 43 ft 2 kts 123°
2026-04-23 10:54 25.24295 55.37665 44 ft 17 kts 122°
2026-04-23 10:54 25.24280 55.37776 45 ft 14 kts 47°
2026-04-23 10:54 25.24320 55.37808 42 ft 0 kts 31°
2026-04-23 10:55 25.24361 55.37837 31 ft 0 kts 36°
2026-04-23 10:56 25.24366 55.37841 28 ft 6 kts 36°
2026-04-23 10:57 25.24440 55.37901 28 ft 14 kts 36°
2026-04-23 10:57 25.24516 55.37959 29 ft 13 kts 34°
2026-04-23 10:57 25.24584 55.38008 34 ft 10 kts 32°
2026-04-23 10:57 25.24630 55.38040 38 ft 6 kts 32°
2026-04-23 10:58 25.24710 55.38091 42 ft 18 kts 18°
2026-04-23 10:58 25.24785 55.38067 41 ft 9 kts 327°
2026-04-23 10:58 25.24816 55.38006 39 ft 11 kts 299°
2026-04-23 10:58 25.24839 55.37960 38 ft 1 kts 300°
2026-04-23 10:59 25.24947 55.37763 37 ft 75 kts 301°
2026-04-23 10:59 25.25379 55.36993 29 ft 161 kts 300°
2026-04-23 10:59 25.26081 55.35763 414 ft 202 kts 304°
2026-04-23 10:59 25.26853 55.34365 1219 ft 229 kts 303°
2026-04-23 11:00 25.27748 55.32701 1752 ft 275 kts 302°
2026-04-23 11:00 25.28808 55.30702 2072 ft 326 kts 301°
2026-04-23 11:00 25.29748 55.28248 2294 ft 362 kts 283°
2026-04-23 11:00 25.29769 55.25592 2586 ft 332 kts 258°
2026-04-23 11:01 25.28816 55.23457 3051 ft 296 kts 230°
2026-04-23 11:01 25.27463 55.21776 3548 ft 290 kts 229°
2026-04-23 11:01 25.26222 55.20039 4039 ft 287 kts 234°
2026-04-23 11:01 25.25071 55.18254 4552 ft 284 kts 230°
2026-04-23 11:02 25.23532 55.16946 5039 ft 281 kts 203°
2026-04-23 11:02 25.21613 55.16631 5555 ft 281 kts 179°
2026-04-23 11:02 25.19675 55.16942 6033 ft 285 kts 164°
2026-04-23 11:02 25.18014 55.18135 6527 ft 291 kts 133°
2026-04-23 11:03 25.16911 55.20037 6856 ft 298 kts 120°
2026-04-23 11:03 25.15976 55.22088 6934 ft 300 kts 119°
2026-04-23 11:03 25.15054 55.24122 6945 ft 300 kts 119°
2026-04-23 11:03 25.14100 55.26177 6943 ft 300 kts 120°
2026-04-23 11:04 25.13136 55.28227 6945 ft 300 kts 120°
2026-04-23 11:04 25.12167 55.30267 6947 ft 303 kts 120°
2026-04-23 11:04 25.11142 55.32398 6952 ft 326 kts 120°
2026-04-23 11:04 25.10059 55.34694 6949 ft 348 kts 118°
2026-04-23 11:05 25.09029 55.37188 6941 ft 363 kts 116°
2026-04-23 11:05 25.08003 55.39759 7001 ft 368 kts 116°
2026-04-23 11:05 25.06958 55.42354 7297 ft 370 kts 116°
2026-04-23 11:05 25.05949 55.44972 7593 ft 371 kts 115°
2026-04-23 11:06 25.03954 55.50243 8215 ft 374 kts 115°
2026-04-23 11:06 25.02953 55.52859 8541 ft 375 kts 115°
2026-04-23 11:06 25.01885 55.55483 8850 ft 375 kts 119°
2026-04-23 11:07 25.00601 55.57997 9167 ft 376 kts 122°
2026-04-23 11:07 24.99256 55.60479 9493 ft 378 kts 122°
2026-04-23 11:07 24.97900 55.62975 9794 ft 380 kts 123°
2026-04-23 11:07 24.96540 55.65482 10103 ft 382 kts 123°
2026-04-23 11:08 24.95176 55.68001 10407 ft 383 kts 123°
2026-04-23 11:08 24.93744 55.70487 10712 ft 383 kts 127°
2026-04-23 11:08 24.92190 55.72876 11012 ft 383 kts 128°
2026-04-23 11:08 24.90610 55.75254 11331 ft 385 kts 128°
2026-04-23 11:09 24.89045 55.77606 11646 ft 386 kts 128°
2026-04-23 11:09 24.87454 55.80000 11960 ft 387 kts 129°
2026-04-23 11:09 24.85863 55.82396 12280 ft 389 kts 129°
2026-04-23 11:09 24.84263 55.84804 12598 ft 388 kts 129°
2026-04-23 11:10 24.82667 55.87198 12920 ft 388 kts 129°
2026-04-23 11:10 24.81048 55.89584 13255 ft 389 kts 129°
2026-04-23 11:10 24.79421 55.91971 13587 ft 391 kts 129°
2026-04-23 11:10 24.77702 55.94285 13892 ft 391 kts 135°
2026-04-23 11:11 24.75816 55.96437 14182 ft 391 kts 138°
2026-04-23 11:11 24.73839 55.98498 14495 ft 393 kts 140°
2026-04-23 11:11 24.71839 56.00502 14793 ft 395 kts 141°
2026-04-23 11:11 24.69770 56.02558 15119 ft 397 kts 141°
2026-04-23 11:12 24.67746 56.04581 15414 ft 399 kts 140°
2026-04-23 11:12 24.65691 56.06658 15728 ft 402 kts 140°
2026-04-23 11:12 24.63627 56.08762 16052 ft 405 kts 140°
2026-04-23 11:12 24.61565 56.10877 16383 ft 407 kts 140°
2026-04-23 11:13 24.59492 56.13014 16698 ft 409 kts 140°
2026-04-23 11:13 24.57449 56.15216 17031 ft 414 kts 136°
2026-04-23 11:13 24.55495 56.17555 17357 ft 417 kts 135°
2026-04-23 11:13 24.53564 56.19951 17697 ft 420 kts 134°
2026-04-23 11:14 24.51640 56.22388 18045 ft 423 kts 133°
2026-04-23 11:14 24.49717 56.24849 18343 ft 426 kts 133°
2026-04-23 11:14 24.47781 56.27330 18632 ft 429 kts 134°
2026-04-23 11:14 24.45833 56.29825 18912 ft 431 kts 133°
2026-04-23 11:15 24.43875 56.32325 19211 ft 434 kts 133°
2026-04-23 11:15 24.41896 56.34847 19509 ft 436 kts 133°
2026-04-23 11:15 24.39908 56.37377 19806 ft 438 kts 133°
2026-04-23 11:15 24.37933 56.39885 20102 ft 440 kts 133°
2026-04-23 11:16 24.35927 56.42429 20419 ft 442 kts 133°
2026-04-23 11:16 24.33910 56.44987 20736 ft 444 kts 134°
2026-04-23 11:16 24.31881 56.47558 21043 ft 445 kts 134°
2026-04-23 11:16 24.29852 56.50129 21363 ft 446 kts 134°
2026-04-23 11:17 24.27875 56.52760 21697 ft 448 kts 130°
2026-04-23 11:17 24.26018 56.55514 22014 ft 450 kts 128°
2026-04-23 11:17 24.24214 56.58327 22342 ft 452 kts 128°
2026-04-23 11:17 24.22443 56.61117 22673 ft 452 kts 128°
2026-04-23 11:18 24.20632 56.63944 23020 ft 453 kts 128°
2026-04-23 11:18 24.18808 56.66754 23353 ft 453 kts 129°
2026-04-23 11:18 24.16964 56.69561 23653 ft 454 kts 129°
2026-04-23 11:18 24.15110 56.72359 23953 ft 454 kts 129°
2026-04-23 11:19 24.13249 56.75153 24255 ft 455 kts 129°
2026-04-23 11:19 24.11381 56.77954 24546 ft 455 kts 129°
2026-04-23 11:19 24.09511 56.80754 24854 ft 455 kts 129°
2026-04-23 11:19 24.07638 56.83558 25155 ft 456 kts 129°
2026-04-23 11:20 24.05768 56.86357 25453 ft 456 kts 129°
2026-04-23 11:20 24.03897 56.89160 25766 ft 456 kts 129°
2026-04-23 11:20 24.02021 56.91968 26078 ft 456 kts 128°
2026-04-23 11:20 24.00145 56.94773 26382 ft 457 kts 128°
2026-04-23 11:21 23.98264 56.97582 26699 ft 457 kts 128°
2026-04-23 11:21 23.96408 57.00351 27014 ft 458 kts 128°
2026-04-23 11:21 23.94522 57.03164 27325 ft 458 kts 128°
2026-04-23 11:21 23.92638 57.05972 27657 ft 459 kts 128°
2026-04-23 11:22 23.90748 57.08788 27987 ft 459 kts 128°
2026-04-23 11:22 23.88857 57.11605 28353 ft 460 kts 128°
2026-04-23 11:22 23.86965 57.14430 28679 ft 460 kts 128°
2026-04-23 11:22 23.85069 57.17251 28999 ft 461 kts 128°
2026-04-23 11:23 23.83163 57.20085 29346 ft 462 kts 128°
2026-04-23 11:23 23.81268 57.22902 29714 ft 462 kts 128°
2026-04-23 11:23 23.79356 57.25740 30036 ft 463 kts 128°
2026-04-23 11:23 23.77454 57.28564 30334 ft 464 kts 128°
2026-04-23 11:24 23.75543 57.31401 30633 ft 465 kts 128°
2026-04-23 11:24 23.73603 57.34278 30956 ft 466 kts 128°
2026-04-23 11:24 23.71702 57.37097 31263 ft 467 kts 128°
2026-04-23 11:24 23.69724 57.39942 31574 ft 468 kts 129°
2026-04-23 11:25 23.67704 57.42721 31893 ft 468 kts 130°
2026-04-23 11:25 23.65657 57.45490 32206 ft 468 kts 130°
2026-04-23 11:25 23.63619 57.48238 32538 ft 468 kts 130°
2026-04-23 11:25 23.61573 57.51009 32798 ft 470 kts 130°
2026-04-23 11:26 23.59521 57.53800 32843 ft 477 kts 130°
2026-04-23 11:26 23.55291 57.59585 32869 ft 494 kts 130°
2026-04-23 11:27 23.50944 57.65545 32857 ft 510 kts 130°
2026-04-23 11:27 23.46493 57.71648 32862 ft 523 kts 130°
2026-04-23 11:28 23.41944 57.77866 32880 ft 523 kts 130°
2026-04-23 11:28 23.37422 57.84030 32868 ft 523 kts 130°
2026-04-23 11:29 23.32875 57.90224 32887 ft 523 kts 130°
2026-04-23 11:29 23.28326 57.96418 32865 ft 524 kts 130°
2026-04-23 11:30 23.23780 58.02602 32869 ft 524 kts 129°
2026-04-23 11:30 23.19571 58.09041 32863 ft 523 kts 124°
2026-04-23 11:31 23.15568 58.15615 32877 ft 523 kts 124°
2026-04-23 11:31 23.11498 58.22201 32871 ft 524 kts 125°
2026-04-23 11:32 23.07377 58.28740 32865 ft 526 kts 125°
2026-04-23 11:32 23.03097 58.35168 32878 ft 524 kts 132°
2026-04-23 11:33 22.97657 58.40266 32860 ft 518 kts 148°
2026-04-23 11:33 22.91577 58.44443 32864 ft 517 kts 151°
2026-04-23 11:34 22.85412 58.48468 32855 ft 517 kts 151°
2026-04-23 11:34 22.79238 58.52504 32854 ft 520 kts 150°
2026-04-23 11:35 22.73053 58.56581 32849 ft 520 kts 150°
2026-04-23 11:35 22.66885 58.60659 32835 ft 520 kts 150°
2026-04-23 11:36 22.60689 58.64760 32830 ft 520 kts 150°
2026-04-23 11:36 22.54518 58.68828 32839 ft 522 kts 150°
2026-04-23 11:37 22.48292 58.72927 32838 ft 525 kts 150°
2026-04-23 11:37 22.42065 58.77024 32837 ft 525 kts 150°
2026-04-23 11:38 22.35835 58.81121 32838 ft 525 kts 150°
2026-04-23 11:38 22.30635 58.84537 32836 ft 525 kts 150°
2026-04-23 11:39 22.24476 58.88822 32838 ft 527 kts 143°
2026-04-23 11:39 22.19282 58.94449 32831 ft 529 kts 131°
2026-04-23 11:40 22.14543 59.00530 32833 ft 529 kts 130°
2026-04-23 11:40 22.09903 59.06630 32827 ft 530 kts 129°
2026-04-23 11:41 22.05200 59.12769 32822 ft 531 kts 130°
2026-04-23 11:41 22.00474 59.18888 32817 ft 531 kts 130°
2026-04-23 11:42 21.95746 59.24989 32819 ft 531 kts 130°
2026-04-23 11:42 21.91009 59.31094 32813 ft 531 kts 130°
2026-04-23 11:43 21.86276 59.37189 32807 ft 529 kts 130°
2026-04-23 11:43 21.81545 59.43274 32807 ft 531 kts 130°
2026-04-23 11:44 21.76803 59.49369 32808 ft 531 kts 130°
2026-04-23 11:44 21.72054 59.55464 32807 ft 531 kts 130°
2026-04-23 11:45 21.67338 59.61511 32817 ft 530 kts 130°
2026-04-23 11:45 21.62617 59.67557 32811 ft 528 kts 130°
2026-04-23 11:46 21.57881 59.73616 32813 ft 530 kts 130°
2026-04-23 11:46 21.53141 59.79675 32813 ft 530 kts 130°
2026-04-23 11:47 21.48378 59.85726 32816 ft 530 kts 130°
2026-04-23 11:47 21.43609 59.91767 32816 ft 527 kts 130°
2026-04-23 11:48 21.38888 59.97745 32819 ft 526 kts 130°
2026-04-23 11:48 21.34153 60.03740 32821 ft 527 kts 130°
2026-04-23 11:49 21.29408 60.09742 32826 ft 527 kts 130°
2026-04-23 11:49 21.24673 60.15725 32826 ft 527 kts 130°
2026-04-23 11:50 21.19959 60.21693 32827 ft 524 kts 130°
2026-04-23 11:50 21.15212 60.27698 32829 ft 525 kts 130°
2026-04-23 11:51 21.10519 60.33629 32831 ft 526 kts 130°
2026-04-23 11:51 21.05784 60.39607 32832 ft 526 kts 130°
2026-04-23 11:52 21.01066 60.45556 32835 ft 526 kts 130°
2026-04-23 11:52 20.96339 60.51510 32834 ft 524 kts 130°
2026-04-23 11:53 20.91623 60.57443 32836 ft 524 kts 130°
2026-04-23 11:53 20.86905 60.63373 32833 ft 524 kts 130°
2026-04-23 11:54 20.82167 60.69323 32836 ft 524 kts 130°
2026-04-23 11:54 20.77458 60.75230 32842 ft 524 kts 130°
2026-04-23 11:55 20.72706 60.81184 32840 ft 523 kts 130°
2026-04-23 11:55 20.67984 60.87093 32840 ft 524 kts 129°
2026-04-23 11:56 20.63243 60.93022 32842 ft 525 kts 129°
2026-04-23 11:56 20.58968 60.99254 32840 ft 523 kts 122°
2026-04-23 11:57 20.55075 61.05826 32843 ft 523 kts 120°
2026-04-23 11:57 20.51232 61.12410 32843 ft 522 kts 120°
2026-04-23 11:58 20.47356 61.18957 32843 ft 522 kts 120°
2026-04-23 11:58 20.43434 61.25514 32845 ft 523 kts 121°
2026-04-23 11:59 20.39538 61.32008 32849 ft 523 kts 121°
2026-04-23 11:59 20.35605 61.38555 32849 ft 522 kts 121°
2026-04-23 12:00 20.31719 61.45022 32847 ft 521 kts 121°
2026-04-23 12:00 20.27805 61.51529 32854 ft 522 kts 121°
2026-04-23 12:01 20.23865 61.58073 32849 ft 522 kts 121°
2026-04-23 12:01 20.19959 61.64552 32850 ft 521 kts 121°
2026-04-23 12:02 20.16061 61.71012 32851 ft 521 kts 121°
2026-04-23 12:02 20.12139 61.77503 32855 ft 521 kts 121°
2026-04-23 12:03 20.08211 61.83997 32853 ft 521 kts 121°
2026-04-23 12:03 20.04270 61.90505 32855 ft 521 kts 121°
2026-04-23 12:04 20.00357 61.96959 32851 ft 520 kts 121°
2026-04-23 12:04 19.96455 62.03388 32851 ft 519 kts 121°
2026-04-23 12:05 19.92530 62.09851 32853 ft 519 kts 121°
2026-04-23 12:05 19.88626 62.16270 32854 ft 519 kts 121°
2026-04-23 12:06 19.84694 62.22728 32862 ft 519 kts 121°
2026-04-23 12:06 19.78829 62.32348 32852 ft 517 kts 120°
2026-04-23 12:07 19.74931 62.38734 32855 ft 517 kts 120°
2026-04-23 12:07 19.71026 62.45124 32852 ft 517 kts 120°
2026-04-23 12:08 19.67088 62.51560 32852 ft 517 kts 120°
2026-04-23 12:08 19.63193 62.57916 32853 ft 515 kts 120°
2026-04-23 12:09 19.59304 62.64259 32853 ft 514 kts 120°
2026-04-23 12:09 19.55391 62.70638 32852 ft 514 kts 120°
2026-04-23 12:10 19.51497 62.76977 32852 ft 514 kts 120°
2026-04-23 12:10 19.47575 62.83354 32860 ft 514 kts 120°
2026-04-23 12:11 19.43698 62.89650 32857 ft 513 kts 120°
2026-04-23 12:11 19.39792 62.95988 32856 ft 512 kts 120°
2026-04-23 12:12 19.35905 63.02287 32855 ft 512 kts 120°
2026-04-23 12:12 19.32003 63.08606 32855 ft 512 kts 120°
2026-04-23 12:13 19.28089 63.14937 32860 ft 513 kts 120°
2026-04-23 12:13 19.24204 63.21215 32857 ft 513 kts 120°
2026-04-23 12:14 19.20291 63.27530 32857 ft 513 kts 120°
2026-04-23 12:14 19.16363 63.33864 32856 ft 513 kts 120°
2026-04-23 12:15 19.12479 63.40122 32859 ft 513 kts 120°
2026-04-23 12:15 19.08552 63.46441 32860 ft 513 kts 120°
2026-04-23 12:16 19.04628 63.52751 32862 ft 514 kts 120°
2026-04-23 12:16 19.00712 63.59039 32862 ft 514 kts 120°
2026-04-23 12:17 18.96780 63.65351 32862 ft 514 kts 120°
2026-04-23 12:17 18.92826 63.71691 32862 ft 514 kts 120°
2026-04-23 12:18 18.88903 63.77973 32863 ft 514 kts 120°
2026-04-23 12:18 18.84959 63.84286 32862 ft 514 kts 120°
2026-04-23 12:19 18.81026 63.90576 32861 ft 514 kts 120°
2026-04-23 12:19 18.77073 63.96891 32862 ft 514 kts 120°
2026-04-23 12:20 18.73138 64.03168 32859 ft 514 kts 120°
2026-04-23 12:20 18.69188 64.09464 32859 ft 514 kts 120°
2026-04-23 12:21 18.65246 64.15741 32861 ft 513 kts 120°
2026-04-23 12:21 18.61313 64.21998 32862 ft 513 kts 120°
2026-04-23 12:22 18.57352 64.28294 32859 ft 513 kts 120°
2026-04-23 12:22 18.53397 64.34574 32862 ft 513 kts 120°
2026-04-23 12:23 18.49464 64.40812 32871 ft 511 kts 121°
2026-04-23 12:23 18.45537 64.47034 32870 ft 510 kts 121°
2026-04-23 12:24 18.41623 64.53230 32867 ft 510 kts 121°
2026-04-23 12:24 18.37669 64.59485 32868 ft 510 kts 121°
2026-04-23 12:25 18.33739 64.65693 32865 ft 510 kts 121°
2026-04-23 12:25 18.29828 64.71867 32860 ft 510 kts 121°
2026-04-23 12:26 18.25883 64.78088 32858 ft 511 kts 121°
2026-04-23 12:26 18.22590 64.83275 32858 ft 511 kts 121°
2026-04-23 12:27 18.17998 64.90504 32860 ft 511 kts 121°
2026-04-23 12:27 18.14050 64.96711 32860 ft 511 kts 121°
2026-04-23 12:28 18.10761 65.01879 32864 ft 509 kts 121°
2026-04-23 12:28 18.06833 65.08045 32858 ft 507 kts 121°
2026-04-23 12:29 18.02905 65.14205 32856 ft 507 kts 121°
2026-04-23 12:29 17.98976 65.20359 32857 ft 507 kts 121°
2026-04-23 12:30 17.95071 65.26472 32856 ft 507 kts 121°
2026-04-23 12:30 17.91139 65.32622 32859 ft 506 kts 122°
2026-04-23 12:31 17.87218 65.38746 32859 ft 504 kts 122°
2026-04-23 12:31 17.83305 65.44854 32842 ft 503 kts 122°
2026-04-23 12:32 17.79414 65.50923 32854 ft 503 kts 122°
2026-04-23 12:32 17.75499 65.57021 32854 ft 503 kts 122°
2026-04-23 12:33 17.71601 65.63089 32863 ft 503 kts 122°
2026-04-23 12:33 17.67694 65.69164 32863 ft 502 kts 122°
2026-04-23 12:34 17.63795 65.75223 32862 ft 501 kts 122°
2026-04-23 12:34 17.59892 65.81318 32861 ft 501 kts 121°
2026-04-23 12:35 17.56116 65.87452 32858 ft 501 kts 121°
2026-04-23 12:35 17.52364 65.93600 32860 ft 502 kts 121°
2026-04-23 12:36 17.48607 65.99712 32861 ft 500 kts 121°
2026-04-23 12:36 17.44817 66.05848 32861 ft 500 kts 121°
2026-04-23 12:37 17.41047 66.11941 32861 ft 500 kts 122°
2026-04-23 12:37 17.37257 66.18060 32861 ft 500 kts 122°
2026-04-23 12:38 17.33464 66.24181 32861 ft 500 kts 122°
2026-04-23 12:38 17.29707 66.30239 32864 ft 498 kts 122°
2026-04-23 12:39 17.25926 66.36330 32863 ft 497 kts 122°
2026-04-23 12:39 17.22178 66.42361 32863 ft 497 kts 122°
2026-04-23 12:40 17.18407 66.48424 32864 ft 497 kts 122°
2026-04-23 12:40 17.14634 66.54485 32863 ft 497 kts 122°
2026-04-23 12:41 17.10857 66.60550 32854 ft 496 kts 122°
2026-04-23 12:41 17.07093 66.66586 32855 ft 496 kts 122°
2026-04-23 12:42 17.03329 66.72616 32848 ft 496 kts 122°
2026-04-23 12:42 16.99549 66.78667 32841 ft 496 kts 123°
2026-04-23 12:43 16.95771 66.84711 32841 ft 496 kts 123°
2026-04-23 12:43 16.91994 66.90746 32851 ft 496 kts 123°
2026-04-23 12:44 16.88229 66.96757 32840 ft 497 kts 123°
2026-04-23 12:44 16.84441 67.02801 32842 ft 497 kts 123°
2026-04-23 12:45 16.80664 67.08820 32840 ft 497 kts 123°
2026-04-23 12:45 16.76884 67.14840 32839 ft 497 kts 123°
2026-04-23 12:46 16.73083 67.20889 32854 ft 497 kts 123°
2026-04-23 12:46 16.69298 67.26907 32841 ft 498 kts 123°
2026-04-23 12:47 16.65486 67.32963 32840 ft 498 kts 123°
2026-04-23 12:47 16.61687 67.38990 32838 ft 497 kts 123°
2026-04-23 12:48 16.57890 67.45012 32836 ft 498 kts 123°
2026-04-23 12:48 16.54086 67.51040 32835 ft 498 kts 123°
2026-04-23 12:49 16.50291 67.57047 32835 ft 498 kts 123°
2026-04-23 12:49 16.46486 67.63066 32846 ft 497 kts 123°
2026-04-23 12:50 16.42672 67.69094 32845 ft 498 kts 123°
2026-04-23 12:50 16.38870 67.75098 32831 ft 498 kts 123°
2026-04-23 12:51 16.35033 67.81151 32843 ft 498 kts 123°
2026-04-23 12:51 16.31217 67.87168 32843 ft 498 kts 123°
2026-04-23 12:52 16.27399 67.93182 32843 ft 498 kts 123°
2026-04-23 12:52 16.23618 67.99161 32842 ft 498 kts 123°
2026-04-23 12:53 16.19824 68.05203 32834 ft 498 kts 123°
2026-04-23 12:53 16.16043 68.11223 32843 ft 499 kts 123°
2026-04-23 12:54 16.12232 68.17275 32841 ft 499 kts 123°
2026-04-23 12:54 16.08424 68.23314 32842 ft 498 kts 123°
2026-04-23 12:55 16.04628 68.29329 32842 ft 498 kts 123°
2026-04-23 12:55 16.00821 68.35355 32840 ft 498 kts 123°
2026-04-23 12:56 15.97030 68.41352 32840 ft 498 kts 123°
2026-04-23 12:56 15.93214 68.47385 32838 ft 498 kts 123°
2026-04-23 12:57 15.89412 68.53391 32839 ft 499 kts 124°
2026-04-23 12:57 15.85589 68.59425 32836 ft 500 kts 124°
2026-04-23 12:58 15.81764 68.65455 32837 ft 500 kts 124°
2026-04-23 12:58 15.77935 68.71487 32836 ft 500 kts 124°
2026-04-23 12:59 15.74114 68.77503 32835 ft 500 kts 124°
2026-04-23 12:59 15.70272 68.83546 32834 ft 500 kts 124°
2026-04-23 13:00 15.66442 68.89566 32835 ft 500 kts 124°
2026-04-23 13:00 15.62621 68.95569 32830 ft 501 kts 124°
2026-04-23 13:01 15.58776 69.01604 32829 ft 501 kts 124°
2026-04-23 13:01 15.54919 69.07649 32829 ft 501 kts 124°
2026-04-23 13:02 15.51086 69.13654 32827 ft 501 kts 124°
2026-04-23 13:02 15.47243 69.19670 32828 ft 501 kts 125°
2026-04-23 13:03 15.43384 69.25707 32825 ft 500 kts 125°
2026-04-23 13:03 15.39557 69.31687 32828 ft 500 kts 125°
2026-04-23 13:04 15.35718 69.37682 32826 ft 500 kts 125°
2026-04-23 13:04 15.31883 69.43668 32823 ft 499 kts 125°
2026-04-23 13:05 15.28040 69.49660 32822 ft 499 kts 125°
2026-04-23 13:05 15.24192 69.55656 32828 ft 498 kts 126°
2026-04-23 13:06 15.18452 69.64590 32824 ft 498 kts 126°
2026-04-23 13:07 15.14620 69.70548 32823 ft 498 kts 126°
2026-04-23 13:07 15.10774 69.76527 32819 ft 498 kts 126°
2026-04-23 13:08 15.06974 69.82508 32815 ft 498 kts 125°
2026-04-23 13:08 15.03190 69.88490 32816 ft 498 kts 126°
2026-04-23 13:09 14.99379 69.94501 32815 ft 497 kts 126°
2026-04-23 13:09 14.95589 70.00465 32815 ft 497 kts 126°
2026-04-23 13:10 14.91806 70.06411 32816 ft 497 kts 126°
2026-04-23 13:10 14.88005 70.12380 32815 ft 497 kts 126°
2026-04-23 13:11 14.84188 70.18372 32815 ft 497 kts 126°
2026-04-23 13:11 14.80399 70.24314 32812 ft 496 kts 127°
2026-04-23 13:12 14.76599 70.30269 32801 ft 496 kts 127°
2026-04-23 13:12 14.72789 70.36237 32812 ft 496 kts 127°
2026-04-23 13:13 14.69013 70.42144 32812 ft 496 kts 127°
2026-04-23 13:13 14.65192 70.48119 32812 ft 497 kts 127°
2026-04-23 13:14 14.61404 70.54039 32809 ft 496 kts 127°
2026-04-23 13:14 14.57583 70.60006 32812 ft 496 kts 128°
2026-04-23 13:15 14.53795 70.65916 32815 ft 496 kts 128°
2026-04-23 13:15 14.50622 70.70863 32815 ft 495 kts 128°
2026-04-23 13:16 14.46812 70.76799 32814 ft 495 kts 128°
2026-04-23 13:16 14.42997 70.82738 32815 ft 496 kts 128°
2026-04-23 13:17 14.39201 70.88645 32810 ft 495 kts 128°
2026-04-23 13:17 14.35384 70.94581 32812 ft 494 kts 128°
2026-04-23 13:18 14.31624 71.00489 32810 ft 495 kts 128°
2026-04-23 13:18 14.27869 71.06451 32812 ft 495 kts 128°
2026-04-23 13:19 14.24125 71.12390 32814 ft 495 kts 128°
2026-04-23 13:19 14.20388 71.18302 32809 ft 495 kts 128°
2026-04-23 13:20 14.16629 71.24241 32798 ft 494 kts 129°
2026-04-23 13:20 14.12868 71.30178 32810 ft 494 kts 129°
2026-04-23 13:21 14.09116 71.36094 32812 ft 493 kts 129°
2026-04-23 13:21 14.05349 71.42031 32809 ft 494 kts 129°
2026-04-23 13:22 14.01600 71.47935 32811 ft 494 kts 129°
2026-04-23 13:22 13.97844 71.53846 32810 ft 493 kts 129°
2026-04-23 13:23 13.94103 71.59732 32800 ft 492 kts 130°
2026-04-23 13:23 13.90352 71.65630 32806 ft 492 kts 130°
2026-04-23 13:24 13.86599 71.71521 32793 ft 492 kts 130°
2026-04-23 13:24 13.82841 71.77419 32807 ft 492 kts 130°
2026-04-23 13:25 13.79093 71.83297 32805 ft 492 kts 130°
2026-04-23 13:25 13.75335 71.89188 32804 ft 492 kts 130°
2026-04-23 13:26 13.71572 71.95087 32808 ft 492 kts 130°
2026-04-23 13:26 13.67703 72.00827 32809 ft 487 kts 135°
2026-04-23 13:27 13.63467 72.06255 32805 ft 486 kts 136°
2026-04-23 13:27 13.59199 72.11670 32807 ft 486 kts 136°
2026-04-23 13:28 13.54951 72.17049 32792 ft 486 kts 136°
2026-04-23 13:28 13.50707 72.22414 32801 ft 485 kts 136°
2026-04-23 13:29 13.46451 72.27791 32800 ft 484 kts 136°
2026-04-23 13:29 13.42211 72.33145 32802 ft 483 kts 136°
2026-04-23 13:30 13.37957 72.38511 32803 ft 483 kts 136°
2026-04-23 13:30 13.33729 72.43843 32801 ft 483 kts 136°
2026-04-23 13:31 13.29469 72.49212 32800 ft 483 kts 136°
2026-04-23 13:31 13.25232 72.54548 32798 ft 483 kts 136°
2026-04-23 13:32 13.20974 72.59907 32810 ft 483 kts 136°
2026-04-23 13:32 13.16764 72.65204 32804 ft 483 kts 136°
2026-04-23 13:33 13.12491 72.70576 32805 ft 483 kts 136°
2026-04-23 13:33 13.08245 72.75911 32803 ft 483 kts 136°
2026-04-23 13:34 13.03990 72.81253 32802 ft 483 kts 136°
2026-04-23 13:34 12.99754 72.86570 32792 ft 483 kts 136°
2026-04-23 13:35 12.95501 72.91904 32796 ft 483 kts 136°
2026-04-23 13:35 12.91263 72.97215 32793 ft 483 kts 136°
2026-04-23 13:36 12.87014 73.02539 32797 ft 483 kts 136°
2026-04-23 13:36 12.82759 73.07866 32798 ft 483 kts 136°
2026-04-23 13:37 12.78486 73.13212 32803 ft 483 kts 136°
2026-04-23 13:37 12.74255 73.18503 32794 ft 483 kts 136°
2026-04-23 13:38 12.70008 73.23810 32801 ft 483 kts 136°
2026-04-23 13:38 12.65749 73.29131 32804 ft 482 kts 136°
2026-04-23 13:39 12.61476 73.34465 32802 ft 482 kts 136°
2026-04-23 13:39 12.57252 73.39735 32797 ft 480 kts 136°
2026-04-23 13:40 12.53008 73.45027 32805 ft 480 kts 136°
2026-04-23 13:40 12.48794 73.50278 32804 ft 480 kts 136°
2026-04-23 13:41 12.44540 73.55576 32808 ft 480 kts 136°
2026-04-23 13:41 12.40328 73.60819 32808 ft 480 kts 136°
2026-04-23 13:42 12.36090 73.66090 32809 ft 480 kts 135°
2026-04-23 13:42 12.31856 73.71355 32806 ft 479 kts 136°
2026-04-23 13:43 12.27620 73.76619 32795 ft 479 kts 135°
2026-04-23 13:43 12.23378 73.81887 32804 ft 479 kts 135°
2026-04-23 13:44 12.19144 73.87141 32807 ft 479 kts 135°
2026-04-23 13:44 12.14920 73.92382 32807 ft 479 kts 135°
2026-04-23 13:45 12.11371 73.96783 32806 ft 479 kts 135°
2026-04-23 13:45 12.06434 74.02901 32806 ft 479 kts 135°
2026-04-23 13:46 12.02193 74.08153 32802 ft 480 kts 135°
2026-04-23 13:46 11.97955 74.13399 32802 ft 480 kts 135°
2026-04-23 13:47 11.93695 74.18669 32797 ft 480 kts 135°
2026-04-23 13:47 11.89463 74.23902 32806 ft 480 kts 135°
2026-04-23 13:48 11.85196 74.29176 32805 ft 480 kts 135°
2026-04-23 13:48 11.80931 74.34443 32802 ft 480 kts 135°
2026-04-23 13:49 11.76697 74.39670 32807 ft 480 kts 135°
2026-04-23 13:49 11.72426 74.44940 32804 ft 480 kts 135°
2026-04-23 13:50 11.68168 74.50190 32799 ft 480 kts 135°
2026-04-23 13:50 11.63898 74.55453 32799 ft 481 kts 135°
2026-04-23 13:51 11.59636 74.60704 32799 ft 480 kts 135°
2026-04-23 13:51 11.55400 74.65920 32799 ft 479 kts 135°
2026-04-23 13:52 11.51133 74.71171 32797 ft 479 kts 135°
2026-04-23 13:52 11.46899 74.76378 32807 ft 479 kts 135°
2026-04-23 13:53 11.42627 74.81629 32806 ft 479 kts 135°
2026-04-23 13:53 11.38292 74.86701 32803 ft 474 kts 142°
2026-04-23 13:54 11.33004 74.90463 32806 ft 460 kts 159°
2026-04-23 13:54 11.26974 74.92376 32804 ft 452 kts 172°
2026-04-23 13:55 11.20780 74.93605 32805 ft 452 kts 172°
2026-04-23 13:55 11.14626 74.94829 32806 ft 452 kts 172°
2026-04-23 13:56 11.08440 74.96068 32810 ft 452 kts 172°
2026-04-23 13:56 11.02248 74.97312 32810 ft 452 kts 172°
2026-04-23 13:57 10.96096 74.98548 32808 ft 452 kts 172°
2026-04-23 13:57 10.89922 74.99788 32804 ft 453 kts 172°
2026-04-23 13:58 10.83740 75.01029 32809 ft 453 kts 172°
2026-04-23 13:58 10.77622 75.02615 32807 ft 459 kts 160°
2026-04-23 13:58 10.74858 75.04258 32808 ft 467 kts 147°
2026-04-23 13:59 10.72525 75.06605 32809 ft 477 kts 133°
2026-04-23 13:59 10.70789 75.09525 32824 ft 487 kts 121°
2026-04-23 13:59 10.69388 75.12656 32806 ft 490 kts 119°
2026-04-23 14:00 10.67108 75.17940 32805 ft 491 kts 119°
2026-04-23 14:00 10.63882 75.25330 32819 ft 490 kts 120°
2026-04-23 14:01 10.61110 75.31637 32820 ft 490 kts 120°
2026-04-23 14:01 10.58697 75.37114 32810 ft 490 kts 119°
2026-04-23 14:02 10.55909 75.43436 32799 ft 490 kts 119°
2026-04-23 14:02 10.53134 75.49723 32805 ft 490 kts 119°
2026-04-23 14:03 10.50343 75.56043 32806 ft 490 kts 119°
2026-04-23 14:03 10.47552 75.62359 32806 ft 490 kts 119°
2026-04-23 14:04 10.44753 75.68690 32809 ft 490 kts 119°
2026-04-23 14:04 10.41975 75.74967 32805 ft 490 kts 119°
2026-04-23 14:05 10.39176 75.81290 32802 ft 489 kts 120°
2026-04-23 14:05 10.36384 75.87592 32807 ft 489 kts 120°
2026-04-23 14:05 10.34989 75.90740 32648 ft 488 kts 120°
2026-04-23 14:06 10.33598 75.93883 32288 ft 489 kts 119°
2026-04-23 14:06 10.32238 75.97018 31929 ft 491 kts 118°
2026-04-23 14:06 10.30877 76.00204 31569 ft 493 kts 118°
2026-04-23 14:06 10.29517 76.03405 31214 ft 495 kts 118°
2026-04-23 14:07 10.27959 76.06506 30863 ft 489 kts 129°
2026-04-23 14:07 10.22992 76.10905 30153 ft 471 kts 159°
2026-04-23 14:07 10.19900 76.11889 29807 ft 461 kts 174°
2026-04-23 14:08 10.16755 76.11967 29358 ft 446 kts 189°
2026-04-23 14:08 10.13834 76.11187 28773 ft 422 kts 204°
2026-04-23 14:08 10.11243 76.09934 28204 ft 403 kts 208°
2026-04-23 14:08 10.08809 76.08637 27649 ft 387 kts 208°
2026-04-23 14:09 10.06468 76.07381 27080 ft 372 kts 208°
2026-04-23 14:09 10.04217 76.06179 26570 ft 361 kts 208°
2026-04-23 14:09 10.02005 76.05006 26046 ft 357 kts 208°
2026-04-23 14:09 9.99839 76.03863 25555 ft 355 kts 208°
2026-04-23 14:10 9.97653 76.02718 25053 ft 353 kts 208°
2026-04-23 14:10 9.95467 76.01581 24552 ft 352 kts 208°
2026-04-23 14:10 9.93157 76.00784 24069 ft 354 kts 190°
2026-04-23 14:10 9.90686 76.00856 23593 ft 361 kts 170°
2026-04-23 14:11 9.88352 76.01821 23069 ft 367 kts 150°
2026-04-23 14:11 9.86460 76.03571 22500 ft 373 kts 129°
2026-04-23 14:11 9.85253 76.05899 21966 ft 377 kts 109°
2026-04-23 14:11 9.84887 76.08526 21400 ft 379 kts 88°
2026-04-23 14:12 9.85415 76.11138 20878 ft 379 kts 68°
2026-04-23 14:12 9.86743 76.13425 20360 ft 377 kts 51°
2026-04-23 14:12 9.88420 76.15468 19847 ft 376 kts 49°
2026-04-23 14:12 9.90141 76.17462 19354 ft 375 kts 49°
2026-04-23 14:13 9.91866 76.19445 18839 ft 374 kts 48°
2026-04-23 14:13 9.93559 76.21398 18369 ft 372 kts 48°
2026-04-23 14:13 9.95289 76.23392 17833 ft 370 kts 48°
2026-04-23 14:13 9.96962 76.25314 17287 ft 368 kts 48°
2026-04-23 14:14 9.98654 76.27248 16737 ft 365 kts 48°
2026-04-23 14:14 10.00338 76.29165 16203 ft 362 kts 49°
2026-04-23 14:14 10.01988 76.31034 15655 ft 346 kts 48°
2026-04-23 14:14 10.03561 76.32810 15137 ft 331 kts 48°
2026-04-23 14:15 10.05069 76.34507 14635 ft 317 kts 48°
2026-04-23 14:15 10.06525 76.36138 14112 ft 305 kts 48°
2026-04-23 14:15 10.07927 76.37701 13619 ft 294 kts 48°
2026-04-23 14:15 10.09284 76.39205 13066 ft 284 kts 48°
2026-04-23 14:16 10.10588 76.40641 12517 ft 275 kts 49°
2026-04-23 14:16 10.11954 76.41963 11975 ft 268 kts 39°
2026-04-23 14:16 10.13557 76.42893 11439 ft 264 kts 24°
2026-04-23 14:16 10.15353 76.43238 10911 ft 264 kts
2026-04-23 14:17 10.17115 76.42743 10393 ft 270 kts 331°
2026-04-23 14:17 10.18337 76.41296 9988 ft 280 kts 295°
2026-04-23 14:17 10.18575 76.39333 9798 ft 286 kts 260°
2026-04-23 14:17 10.17778 76.37512 9504 ft 283 kts 228°
2026-04-23 14:18 10.16400 76.36113 9151 ft 280 kts 217°
2026-04-23 14:18 10.14722 76.35208 8807 ft 270 kts 188°
2026-04-23 14:18 10.12915 76.35054 8464 ft 261 kts 171°
2026-04-23 14:18 10.11173 76.35430 8123 ft 253 kts 154°
2026-04-23 14:19 10.09693 76.36320 7786 ft 245 kts 134°
2026-04-23 14:19 10.08719 76.37685 7453 ft 236 kts 109°
2026-04-23 14:19 10.08483 76.39305 7127 ft 232 kts 83°
2026-04-23 14:19 10.08958 76.40866 6800 ft 233 kts 66°
2026-04-23 14:20 10.09715 76.42325 6475 ft 235 kts 60°
2026-04-23 14:20 10.10583 76.43734 6155 ft 236 kts 58°
2026-04-23 14:20 10.11480 76.45130 5809 ft 236 kts 58°
2026-04-23 14:20 10.12376 76.46528 5472 ft 237 kts 58°
2026-04-23 14:21 10.13268 76.47942 5138 ft 237 kts 58°
2026-04-23 14:21 10.14146 76.49360 4804 ft 237 kts 57°
2026-04-23 14:21 10.15269 76.50557 4471 ft 239 kts 36°
2026-04-23 14:21 10.16790 76.51223 4129 ft 240 kts 10°
2026-04-23 14:22 10.18435 76.51105 3863 ft 239 kts 339°
2026-04-23 14:22 10.19794 76.50163 3801 ft 239 kts 310°
2026-04-23 14:22 10.20508 76.48668 3805 ft 237 kts 280°
2026-04-23 14:22 10.20400 76.47017 3799 ft 237 kts 253°
2026-04-23 14:23 10.19801 76.45453 3797 ft 238 kts 245°
2026-04-23 14:23 10.19018 76.43973 3801 ft 239 kts 240°
2026-04-23 14:23 10.18158 76.42528 3800 ft 239 kts 239°
2026-04-23 14:23 10.17283 76.41095 3912 ft 240 kts 239°
2026-04-23 14:24 10.16416 76.39644 3985 ft 240 kts 239°
2026-04-23 14:24 10.15569 76.38183 3994 ft 240 kts 240°
2026-04-23 14:24 10.14581 76.36819 3989 ft 241 kts 225°
2026-04-23 14:24 10.13196 76.35872 3991 ft 241 kts 205°
2026-04-23 14:25 10.11578 76.35599 3994 ft 242 kts 174°
2026-04-23 14:25 10.09999 76.36199 3993 ft 241 kts 143°
2026-04-23 14:25 10.08963 76.37482 3997 ft 240 kts 113°
2026-04-23 14:25 10.08480 76.39103 3996 ft 240 kts 101°
2026-04-23 14:26 10.08165 76.40773 3993 ft 241 kts 99°
2026-04-23 14:26 10.07873 76.42447 3993 ft 241 kts 99°
2026-04-23 14:26 10.07638 76.44136 3994 ft 241 kts 95°
2026-04-23 14:26 10.07480 76.45830 3993 ft 241 kts 94°
2026-04-23 14:27 10.07335 76.47529 3993 ft 241 kts 94°
2026-04-23 14:27 10.07190 76.49224 3994 ft 241 kts 95°
2026-04-23 14:27 10.07044 76.50928 3996 ft 241 kts 95°
2026-04-23 14:27 10.06916 76.52621 3997 ft 240 kts 94°
2026-04-23 14:28 10.06794 76.54288 3997 ft 240 kts 94°
2026-04-23 14:28 10.06704 76.55978 3991 ft 240 kts 89°
2026-04-23 14:28 10.07035 76.57632 3793 ft 237 kts 71°
2026-04-23 14:28 10.07698 76.59136 3527 ft 230 kts 53°
2026-04-23 14:29 10.08912 76.60109 3294 ft 220 kts 21°
2026-04-23 14:29 10.10371 76.60255 3052 ft 207 kts 347°
2026-04-23 14:29 10.11680 76.59846 2991 ft 188 kts 337°
2026-04-23 14:29 10.12868 76.59370 2997 ft 181 kts 336°
2026-04-23 14:30 10.14031 76.58888 2992 ft 180 kts 336°
2026-04-23 14:30 10.15141 76.58311 2982 ft 180 kts 315°
2026-04-23 14:30 10.15708 76.57214 2969 ft 177 kts 282°
2026-04-23 14:30 10.15720 76.55983 2730 ft 174 kts 263°
2026-04-23 14:31 10.15605 76.54770 2462 ft 171 kts 266°
2026-04-23 14:31 10.15576 76.53565 2230 ft 170 kts 269°
2026-04-23 14:31 10.15540 76.52389 2009 ft 168 kts 268°
2026-04-23 14:31 10.15495 76.51234 1794 ft 159 kts 268°
2026-04-23 14:32 10.15455 76.50147 1595 ft 152 kts 268°
2026-04-23 14:32 10.15417 76.49075 1413 ft 153 kts 269°
2026-04-23 14:32 10.15377 76.47969 1202 ft 157 kts 268°
2026-04-23 14:32 10.15338 76.46866 1000 ft 156 kts 268°
2026-04-23 14:33 10.15297 76.45777 820 ft 152 kts 269°
2026-04-23 14:33 10.15258 76.44689 638 ft 153 kts 269°
2026-04-23 14:33 10.15219 76.43599 454 ft 155 kts 269°
2026-04-23 14:33 10.15180 76.42504 254 ft 154 kts 270°
2026-04-23 14:34 10.15145 76.41444 86 ft 148 kts 271°
2026-04-23 14:34 10.15126 76.40474 50 ft 116 kts 268°
2026-04-23 14:34 10.15111 76.39947 53 ft 39 kts 268°
2026-04-23 14:34 10.15112 76.39679 51 ft 37 kts 279°
2026-04-23 14:35 10.15191 76.39488 50 ft 6 kts 309°
2026-04-23 14:35 10.15234 76.39461 47 ft 9 kts 14°
2026-04-23 14:35 10.15307 76.39506 49 ft 13 kts 21°
2026-04-23 14:35 10.15362 76.39555 47 ft 11 kts 72°
2026-04-23 14:36 10.15377 76.39647 54 ft 15 kts 88°
2026-04-23 14:36 10.15421 76.39740 48 ft 16 kts 20°
2026-04-23 14:36 10.15539 76.39727 50 ft 17 kts 335°
2026-04-23 14:36 10.15583 76.39648 48 ft 8 kts 339°
2026-04-23 14:37 10.15641 76.39658 37 ft 7 kts
2026-04-23 14:37 10.15663 76.39658 52 ft 0 kts 360°